TimeIST,TemperatureF,Dew PointF,Humidity,Sea Level PressureIn,VisibilityMPH,Wind Direction,Wind SpeedMPH,Gust SpeedMPH,PrecipitationIn,Events,Conditions,WindDirDegrees,DateUTC
12:10 AM,62.6,44.6,52,29.98,2.5,NE,3.5,-,N/A,,Smoke,40,2013-03-01 18:40:00
12:40 AM,60.8,42.8,52,29.98,2.5,NNE,3.5,-,N/A,,Smoke,30,2013-03-01 19:10:00
1:10 AM,59.0,42.8,55,29.98,2.5,NNE,3.5,-,N/A,,Smoke,20,2013-03-01 19:40:00
1:40 AM,59.0,42.8,55,29.98,2.5,NNE,3.5,-,N/A,,Smoke,30,2013-03-01 20:10:00
2:10 AM,57.2,41.0,55,29.98,2.5,NNE,4.6,-,N/A,,Smoke,20,2013-03-01 20:40:00
2:40 AM,57.2,39.2,51,29.95,2.5,NE,3.5,-,N/A,,Smoke,40,2013-03-01 21:10:00
3:10 AM,59.0,37.4,45,29.95,2.5,NE,6.9,-,N/A,,Smoke,50,2013-03-01 21:40:00
3:40 AM,60.8,35.6,39,29.95,2.5,NE,6.9,-,N/A,,Smoke,50,2013-03-01 22:10:00
4:10 AM,60.8,35.6,39,29.95,2.5,NE,6.9,-,N/A,,Smoke,50,2013-03-01 22:40:00
4:40 AM,60.8,35.6,39,29.95,2.5,NE,9.2,-,N/A,,Smoke,50,2013-03-01 23:10:00
5:10 AM,62.6,35.6,37,29.95,2.5,NE,8.1,-,N/A,,Smoke,50,2013-03-01 23:40:00
5:30 AM,65,38,25,30.00,2,NE,5.8,,,,,50,2013-03-02 00:00:00
5:40 AM,60.8,35.6,39,29.98,2.5,ENE,8.1,-,N/A,,Smoke,60,2013-03-02 00:10:00
6:10 AM,59.0,35.6,42,29.98,2.5,NE,6.9,-,N/A,,Smoke,40,2013-03-02 00:40:00
6:40 AM,55.4,35.6,47,30.01,2.5,NE,5.8,-,N/A,,Smoke,40,2013-03-02 01:10:00
8:10 AM,64.4,35.6,34,30.04,2.2,ENE,6.9,-,N/A,,Smoke,70,2013-03-02 02:40:00
8:30 AM,69,37,20,30.06,2,NE,3.5,,,,Smoke,50,2013-03-02 03:00:00
8:40 AM,69.8,35.6,28,30.04,2.2,ENE,10.4,-,N/A,,Smoke,60,2013-03-02 03:10:00
9:10 AM,73.4,37.4,27,30.06,2.5,ENE,10.4,-,N/A,,Smoke,70,2013-03-02 03:40:00
10:10 AM,78.8,37.4,23,30.06,3.1,ENE,9.2,-,N/A,,Smoke,70,2013-03-02 04:40:00
10:40 AM,78.8,39.2,24,30.04,3.7,ENE,9.2,-,N/A,,Unknown,70,2013-03-02 05:10:00
11:10 AM,82.4,37.4,20,30.04,3.7,ENE,11.5,-,N/A,,Unknown,70,2013-03-02 05:40:00
11:30 AM,84,38,11,30.07,2,NE,6.9,,,,,50,2013-03-02 06:00:00
11:40 AM,84.2,39.2,20,30.04,3.7,ENE,9.2,-,N/A,,Unknown,70,2013-03-02 06:10:00
12:10 PM,87.8,39.2,18,30.01,5.0,ENE,8.1,-,N/A,,Unknown,70,2013-03-02 06:40:00
12:40 PM,87.8,37.4,17,30.01,5.0,ENE,9.2,-,N/A,,Unknown,70,2013-03-02 07:10:00
1:10 PM,87.8,35.6,16,29.98,5.0,ENE,9.2,-,N/A,,Unknown,70,2013-03-02 07:40:00
1:40 PM,89.6,35.6,15,29.95,5.0,ENE,10.4,-,N/A,,Unknown,70,2013-03-02 08:10:00
2:10 PM,91.4,33.8,13,29.95,5.0,ENE,9.2,-,N/A,,Unknown,70,2013-03-02 08:40:00
2:30 PM,90,30,6,29.99,2,ESE,5.8,,,,,110,2013-03-02 09:00:00
2:40 PM,91.4,30.2,11,29.92,5.0,ENE,8.1,-,N/A,,Unknown,70,2013-03-02 09:10:00
3:10 PM,93.2,33.8,12,29.92,5.0,East,6.9,-,N/A,,Unknown,90,2013-03-02 09:40:00
3:40 PM,93.2,33.8,12,29.89,5.0,East,6.9,-,N/A,,Unknown,80,2013-03-02 10:10:00
4:10 PM,93.2,33.8,12,29.89,5.0,ENE,6.9,-,N/A,,Unknown,60,2013-03-02 10:40:00
4:40 PM,93.2,35.6,13,29.89,5.0,NE,9.2,-,N/A,,Unknown,40,2013-03-02 11:10:00
5:10 PM,93.2,28.4,10,29.89,5.0,NE,10.4,-,N/A,,Unknown,40,2013-03-02 11:40:00
5:30 PM,90,30,6,29.95,2,NNE,4.6,,,,,20,2013-03-02 12:00:00
5:40 PM,91.4,32.0,12,29.92,3.7,NE,6.9,-,N/A,,Unknown,50,2013-03-02 12:10:00
6:10 PM,89.6,30.2,12,29.92,3.1,NE,5.8,-,N/A,,Smoke,50,2013-03-02 12:40:00
6:40 PM,86.0,35.6,17,29.92,2.5,ENE,4.6,-,N/A,,Smoke,60,2013-03-02 13:10:00
7:10 PM,82.4,39.2,21,29.92,2.5,ENE,2.3,-,N/A,,Smoke,70,2013-03-02 13:40:00
7:40 PM,78.8,37.4,23,29.95,2.5,NNE,2.3,-,N/A,,Smoke,20,2013-03-02 14:10:00
8:10 PM,75.2,41.0,29,29.95,2.5,Variable,2.3,-,N/A,,Smoke,0,2013-03-02 14:40:00
8:30 PM,70,47,33,30.00,2,Calm,Calm,,,,,,2013-03-02 15:00:00
8:40 PM,77.0,37.4,24,29.95,2.5,Variable,3.5,-,N/A,,Smoke,0,2013-03-02 15:10:00
9:10 PM,71.6,41.0,33,29.98,2.5,Variable,2.3,-,N/A,,Smoke,0,2013-03-02 15:40:00
9:40 PM,68.0,42.8,40,29.98,2.5,Variable,2.3,-,N/A,,Smoke,0,2013-03-02 16:10:00
10:10 PM,68.0,44.6,43,29.98,2.5,NNE,2.3,-,N/A,,Smoke,20,2013-03-02 16:40:00
10:40 PM,66.2,42.8,43,29.98,2.5,NNE,2.3,-,N/A,,Smoke,20,2013-03-02 17:10:00
11:10 PM,66.2,39.2,37,29.98,2.5,ENE,3.5,-,N/A,,Smoke,60,2013-03-02 17:40:00
11:30 PM,62,46,45,30.01,2,Calm,Calm,,,,,,2013-03-02 18:00:00
11:40 PM,66.2,37.4,35,29.98,2.5,ENE,2.3,-,N/A,,Smoke,60,2013-03-02 18:10:00